This demonstration page uses our WeatherBlox Daily Observations layout. Learn more.

Left ArrowRight Arrow

Hourly Observations for April 9, 2022

Temp ( °F °C ) Dew Point ( °F °C ) Humidity (%) Winds ( mph kmh ) Pressure ( in mb ) Visibility ( mi km ) Precip ( " mm )
12:52 am 00:52 Clear 30 -1.1 24 -4.4 79 79 SW 5 7 30.01 1016 10 16 0.00 0.00
1:52 am 01:52 Clear 30 -1.1 24 -4.4 79 79 WSW 5 7 30.00 1016 10 16 0.00 0.00
2:52 am 02:52 Clear 31 -0.6 23 -5 72 72 W 3 6 29.99 1016 10 16 0.00 0.00
3:52 am 03:52 Clear 36 2.2 24 -4.4 62 62 W 8 13 29.98 1015 10 16 0.00 0.00
4:52 am 04:52 Clear 35 1.7 22 -5.6 59 59 W 7 11 29.99 1016 10 16 0.00 0.00
5:52 am 05:52 Clear 32 0 21 -6.1 64 64 Calm 30.00 1016 10 16 0.00 0.00
6:52 am 06:52 Sunny 28 -2.2 20 -6.7 72 72 Calm 30.02 1017 10 16 0.00 0.00
7:52 am 07:52 Sunny 35 1.7 23 -5 61 61 W 3 6 30.03 1017 10 16 0.00 0.00
8:52 am 08:52 Sunny 41 5 23 -5 49 49 W 6 9 30.04 1017 10 16 0.00 0.00
9:52 am 09:52 Sunny 47 8.3 25 -3.9 42 42 Calm 30.03 1017 10 16 0.00 0.00
10:52 am 10:52 Sunny 51 10.6 21 -6.1 31 31 W 12 19 30.04 1017 10 16 0.00 0.00
11:52 am 11:52 Sunny 54 12.2 21 -6.1 28 28 undefined N/A 30.03 1017 10 16 0.00 0.00
12:52 pm 12:52 Sunny 57 13.9 22 -5.6 26 26 W 10 17 30.01 1016 10 16 0.00 0.00
1:52 pm 13:52 Sunny 58 14.4 21 -6.1 24 24 SW 9 15 29.97 1015 10 16 0.00 0.00
2:52 pm 14:52 Sunny 60 15.6 23 -5 24 24 SSW 10 17 29.94 1014 10 16 0.00 0.00
3:52 pm 15:52 Sunny 61 16.1 24 -4.4 24 24 S 6 9 29.89 1012 10 16 0.00 0.00
4:52 pm 16:52 Sunny 62 16.7 23 -5 22 22 S 6 9 29.86 1011 10 16 0.00 0.00
5:52 pm 17:52 Sunny 64 17.8 24 -4.4 22 22 SSE 13 20 29.84 1011 10 16 0.00 0.00
6:52 pm 18:52 Sunny 62 16.7 23 -5 22 22 S 8 13 29.84 1011 10 16 0.00 0.00
7:52 pm 19:52 Clear 56 13.3 25 -3.9 30 30 SSE 7 11 29.83 1010 10 16 0.00 0.00
8:52 pm 20:52 Clear 52 11.1 26 -3.3 37 37 SE 8 13 29.83 1010 10 16 0.00 0.00
9:52 pm 21:52 Clear 54 12.2 24 -4.4 31 31 SSE 12 19 29.82 1010 10 16 0.00 0.00
10:52 pm 22:52 Clear 56 13.3 23 -5 28 28 SSE 15 24 29.79 1009 10 16 0.00 0.00
11:52 pm 23:52 Clear 54 12.2 25 -3.9 33 33 SSE 14 22 29.77 1008 10 16 0.00 0.00

Powered by AerisWeather